CW0453 Weather Reports


Display with metric or nautical units.
time (UTC)temp
F
wind
direction
speed
MPH
gust
MPH
rain 1hr
in
rain 24hr
in
rain mn
in
humidity
%
barometer
mb
20171122200512 38 159 12.0 19.0 0.00 0.00 0.00 45 1021.8
20171122200014 38 186 11.0 18.0 0.00 0.00 0.00 44 1022.1
20171122195517 38 182 12.0 18.0 0.00 0.00 0.00 44 1022.1
20171122195021 37 148 9.0 21.0 0.00 0.00 0.00 45 1022.2
20171122194523 37 187 13.0 20.0 0.00 0.00 0.00 44 1022.4
20171122194023 37 173 9.0 17.0 0.00 0.00 0.00 45 1022.7
20171122193526 37 173 10.0 17.0 0.00 0.00 0.00 46 1023.0
20171122193028 36 159 10.0 17.0 0.00 0.00 0.00 46 1023.0
20171122192512 36 186 11.0 22.0 0.00 0.00 0.00 47 1023.1
20171122192015 36 194 12.0 23.0 0.00 0.00 0.00 46 1023.1
20171122191518 36 186 11.0 19.0 0.00 0.00 0.00 47 1023.2
20171122191022 36 178 10.0 15.0 0.00 0.00 0.00 47 1023.3
20171122190524 35 198 10.0 19.0 0.00 0.00 0.00 48 1023.6
20171122190028 35 161 9.0 19.0 0.00 0.00 0.00 49 1023.8
20171122185533 35 192 7.0 15.0 0.00 0.00 0.00 49 1024.2
20171122185034 35 178 10.0 15.0 0.00 0.00 0.00 49 1024.4
20171122184515 35 213 10.0 19.0 0.00 0.00 0.00 50 1024.5
20171122184015 34 196 10.0 19.0 0.00 0.00 0.00 50 1024.7
20171122183517 35 181 10.0 17.0 0.00 0.00 0.00 51 1024.9
20171122183043 34 196 9.0 17.0 0.00 0.00 0.00 51 1025.2
20171122182523 33 190 12.0 17.0 0.00 0.00 0.00 52 1025.6
20171122182026 33 192 10.0 19.0 0.00 0.00 0.00 51 1025.3
20171122181531 33 174 12.0 21.0 0.00 0.00 0.00 50 1025.1
20171122181015 33 189 12.0 18.0 0.00 0.00 0.00 51 1025.3
20171122180538 33 171 10.0 18.0 0.00 0.00 0.00 51 1025.4
20171122180020 32 173 13.0 18.0 0.00 0.00 0.00 52 1025.8
20171122175522 32 170 12.0 18.0 0.00 0.00 0.00 52 1025.9
20171122175047 32 167 11.0 19.0 0.00 0.00 0.00 52 1025.9
20171122174644 32 202 13.0 19.0 0.00 0.00 0.00 53 1025.9
20171122174031 31 189 9.0 18.0 0.00 0.00 0.00 54 1026.0
20171122173513 31 205 11.0 22.0 0.00 0.00 0.00 54 1026.2
20171122173016 31 170 12.0 22.0 0.00 0.00 0.00 54 1026.0
20171122172517 31 193 12.0 19.0 0.00 0.00 0.00 54 1026.1
20171122172021 31 173 8.0 21.0 0.00 0.00 0.00 53 1026.2
20171122171520 30 190 13.0 21.0 0.00 0.00 0.00 53 1026.1
20171122171023 30 156 10.0 16.0 0.00 0.00 0.00 54 1026.4
20171122170527 30 150 11.0 16.0 0.00 0.00 0.00 54 1026.5
20171122170027 30 167 10.0 17.0 0.00 0.00 0.00 54 1026.6
20171122165551 30 157 10.0 19.0 0.00 0.00 0.00 55 1026.7
20171122165053 29 169 10.0 20.0 0.00 0.00 0.00 54 1026.7
20171122164515 29 163 11.0 17.0 0.00 0.00 0.00 55 1027.1
20171122164016 29 190 12.0 17.0 0.00 0.00 0.00 57 1027.4
20171122163522 29 161 10.0 17.0 0.00 0.00 0.00 59 1027.8
20171122163027 28 158 11.0 17.0 0.00 0.00 0.00 60 1028.0
20171122162530 28 179 11.0 17.0 0.00 0.00 0.00 60 1028.0
20171122162014 28 186 8.0 13.0 0.00 0.00 0.00 62 1028.1
20171122161516 27 173 9.0 15.0 0.00 0.00 0.00 62 1028.1
20171122161020 27 157 11.0 16.0 0.00 0.00 0.00 63 1028.3
20171122160522 26 180 9.0 14.0 0.00 0.00 0.00 64 1028.6
20171122160023 26 192 7.0 14.0 0.00 0.00 0.00 64 1028.7
20171122155529 26 175 8.0 12.0 0.00 0.00 0.00 66 1028.9
20171122155032 25 195 5.0 11.0 0.00 0.00 0.00 68 1028.9
20171122154516 24 167 8.0 11.0 0.00 0.00 0.00 70 1029.0
20171122154018 24 165 5.0 11.0 0.00 0.00 0.00 71 1029.0
20171122153523 23 171 8.0 13.0 0.00 0.00 0.00 70 1028.9
20171122153026 23 171 8.0 13.0 0.00 0.00 0.00 71 1028.9
20171122152528 23 189 5.0 10.0 0.00 0.00 0.00 74 1028.9
20171122152029 22 163 7.0 11.0 0.00 0.00 0.00 74 1028.9
20171122151533 22 176 4.0 9.0 0.00 0.00 0.00 77 1028.9
20171122151016 21 186 3.0 7.0 0.00 0.00 0.00 79 1028.9
20171122150519 21 157 4.0 7.0 0.00 0.00 0.00 80 1028.9
20171122150041 20 157 3.0 7.0 0.00 0.00 0.00 80 1028.9
20171122145541 20 166 5.0 6.0 0.00 0.00 0.00 81 1028.9
20171122145023 19 171 4.0 7.0 0.00 0.00 0.00 82 1029.0
20171122144525 19 150 2.0 5.0 0.00 0.00 0.00 82 1029.0
20171122144029 18 182 3.0 5.0 0.00 0.00 0.00 82 1029.0
20171122143552 18 194 3.0 5.0 0.00 0.00 0.00 82 1029.1
20171122143015 18 194 4.0 6.0 0.00 0.00 0.00 83 1029.3
20171122142522 18 300 2.0 4.0 0.00 0.00 0.00 83 1029.3
20171122142024 17 302 0.0 3.0 0.00 0.00 0.00 84 1029.1
20171122141527 17 302 1.0 3.0 0.00 0.00 0.00 85 1029.0
20171122141031 16 303 1.0 3.0 0.00 0.00 0.00 86 1029.1
20171122140531 15 303 0.0 1.0 0.00 0.00 0.00 86 1029.2
20171122140013 15 303 0.0 2.0 0.00 0.00 0.00 87 1029.3
20171122135516 15 303 1.0 2.0 0.00 0.00 0.00 87 1029.3
20171122135020 14 303 0.0 0.0 0.00 0.00 0.00 87 1029.5
20171122134523 13 303 0.0 2.0 0.00 0.00 0.00 87 1029.4
20171122134025 13 303 0.0 2.0 0.00 0.00 0.00 87 1029.4
20171122133529 13 303 1.0 2.0 0.00 0.00 0.00 87 1029.5
20171122133051 12 303 1.0 2.0 0.00 0.00 0.00 86 1029.3
20171122132515 12 303 0.0 2.0 0.00 0.00 0.00 86 1029.3
20171122132018 13 303 0.0 0.0 0.00 0.00 0.00 87 1029.4
20171122131540 12 303 0.0 0.0 0.00 0.00 0.00 86 1029.3
20171122131021 13 303 0.0 0.0 0.00 0.00 0.00 86 1029.2
20171122130524 13 303 0.0 0.0 0.00 0.00 0.00 86 1029.3
20171122130027 13 303 0.0 0.0 0.00 0.00 0.00 86 1029.2
20171122125529 13 303 0.0 0.0 0.00 0.00 0.00 85 1029.2
20171122125030 13 303 0.0 0.0 0.00 0.00 0.00 85 1029.3
20171122124516 13 303 0.0 1.0 0.00 0.00 0.00 85 1029.2
20171122124019 13 303 0.0 1.0 0.00 0.00 0.00 86 1029.3
20171122123522 13 303 0.0 1.0 0.00 0.00 0.00 85 1029.3
20171122123028 13 303 0.0 1.0 0.00 0.00 0.00 85 1029.3
20171122122532 13 303 0.0 1.0 0.00 0.00 0.00 85 1029.3
20171122122016 13 303 0.0 1.0 0.00 0.00 0.00 85 1029.4
20171122121520 13 303 0.0 3.0 0.00 0.00 0.00 84 1029.3
20171122121024 14 303 1.0 3.0 0.00 0.00 0.00 84 1029.4
20171122120524 14 303 2.0 3.0 0.00 0.00 0.00 85 1029.4
20171122120027 14 303 0.0 0.0 0.00 0.00 0.00 85 1029.4
20171122115531 14 303 0.0 0.0 0.00 0.00 0.00 85 1029.3
20171122115016 14 303 0.0 0.0 0.00 0.00 0.00 84 1029.4
20171122114519 14 303 0.0 0.0 0.00 0.00 0.00 83 1029.3
20171122114022 14 303 0.0 1.0 0.00 0.00 0.00 83 1029.3
20171122113523 15 303 0.0 2.0 0.00 0.00 0.00 83 1029.3
20171122113029 15 303 0.0 3.0 0.00 0.00 0.00 83 1029.2
20171122112014 15 303 2.0 4.0 0.00 0.00 0.00 84 1029.2
20171122111517 15 303 2.0 4.0 0.00 0.00 0.00 84 1029.2
20171122110513 14 303 0.0 0.0 0.00 0.00 0.00 84 1029.2
20171122110017 15 303 0.0 0.0 0.00 0.00 0.00 83 1029.3
20171122105521 15 303 0.0 2.0 0.00 0.00 0.00 84 1029.3
20171122105026 15 303 0.0 4.0 0.00 0.00 0.00 83 1029.4
20171122104531 16 303 1.0 4.0 0.00 0.00 0.00 83 1029.4
20171122104014 15 303 3.0 4.0 0.00 0.00 0.00 82 1029.6
20171122103519 16 303 3.0 4.0 0.00 0.00 0.00 81 1029.5
20171122103023 16 303 2.0 5.0 0.00 0.00 0.00 81 1029.6
20171122102524 16 303 4.0 5.0 0.00 0.00 0.00 80 1029.7
20171122102029 17 303 2.0 5.0 0.00 0.00 0.00 80 1029.6
20171122101513 17 303 3.0 4.0 0.00 0.00 0.00 80 1029.6
20171122101035 17 303 2.0 5.0 0.00 0.00 0.00 80 1029.6
20171122100527 17 303 3.0 5.0 0.00 0.00 0.00 80 1029.6
20171122100029 16 303 3.0 6.0 0.00 0.00 0.00 80 1029.6
20171122095531 16 303 4.0 6.0 0.00 0.00 0.00 80 1029.7
20171122095014 16 303 3.0 5.0 0.00 0.00 0.00 80 1029.5
20171122094518 16 303 3.0 4.0 0.00 0.00 0.00 81 1029.4
20171122094022 16 303 1.0 5.0 0.00 0.00 0.00 79 1029.2
20171122093524 16 303 3.0 5.0 0.00 0.00 0.00 80 1029.4
20171122093028 16 303 3.0 4.0 0.00 0.00 0.00 80 1029.3
20171122092514 16 303 3.0 4.0 0.00 0.00 0.00 80 1029.4
20171122092017 16 303 0.0 2.0 0.00 0.00 0.00 79 1029.5
20171122091020 17 303 2.0 4.0 0.00 0.00 0.00 79 1029.8
20171122090524 17 303 2.0 4.0 0.00 0.00 0.00 79 1029.9
20171122090028 17 303 2.0 3.0 0.00 0.00 0.00 79 1030.1
20171122085513 17 303 0.0 4.0 0.00 0.00 0.00 79 1030.2
20171122085016 17 303 1.0 4.0 0.00 0.00 0.00 79 1030.2
20171122084519 17 303 2.0 4.0 0.00 0.00 0.00 79 1030.2
20171122084023 17 303 2.0 4.0 0.00 0.00 0.00 79 1030.3
20171122083527 17 303 3.0 4.0 0.00 0.00 0.00 79 1030.3
20171122083028 17 303 2.0 3.0 0.00 0.00 0.00 79 1030.2
20171122082532 17 303 2.0 4.0 0.00 0.00 0.00 79 1030.2
20171122082018 16 303 2.0 4.0 0.00 0.00 0.00 80 1030.1
20171122081520 16 303 2.0 4.0 0.00 0.00 0.00 80 1030.3
20171122081020 16 303 3.0 4.0 0.00 0.00 0.00 80 1030.3
20171122080524 16 303 3.0 4.0 0.00 0.00 0.00 79 1030.3
20171122080025 16 303 3.0 5.0 0.00 0.00 0.00 79 1030.4
20171122075528 17 303 3.0 5.0 0.00 0.00 0.00 79 1030.4
20171122075029 17 304 3.0 5.0 0.00 0.00 0.00 79 1030.5
20171122074514 17 304 3.0 4.0 0.00 0.00 0.00 78 1030.5
20171122074018 17 304 3.0 4.0 0.00 0.00 0.00 78 1030.4
20171122073522 17 304 2.0 4.0 0.00 0.00 0.00 78 1030.1
20171122073013 17 304 2.0 4.0 0.00 0.00 0.00 78 1030.1
20171122072515 17 304 2.0 4.0 0.00 0.00 0.00 77 1030.1
20171122072019 17 304 2.0 4.0 0.00 0.00 0.00 77 1030.0
20171122071523 17 304 2.0 3.0 0.00 0.00 0.00 77 1030.0
20171122071026 17 304 0.0 3.0 0.00 0.00 0.00 76 1030.0
20171122070528 17 304 2.0 3.0 0.00 0.00 0.00 78 1030.1
20171122070032 16 304 0.0 0.0 0.00 0.00 0.00 78 1030.0
20171122065516 16 304 0.0 0.0 0.00 0.00 0.00 77 1030.1
20171122065020 17 304 0.0 0.0 0.00 0.00 0.00 76 1030.1
20171122064523 17 304 0.0 3.0 0.00 0.00 0.00 75 1030.3
20171122064023 18 304 1.0 3.0 0.00 0.00 0.00 76 1030.2
20171122063528 17 304 2.0 3.0 0.00 0.00 0.00 76 1030.3
20171122063030 17 304 0.0 2.0 0.00 0.00 0.00 75 1030.3
20171122062513 18 304 1.0 2.0 0.00 0.00 0.00 74 1030.4
20171122062015 18 304 0.0 1.0 0.00 0.00 0.00 74 1030.2
20171122061518 18 304 0.0 4.0 0.00 0.00 0.00 73 1030.3
20171122061022 19 304 1.0 5.0 0.00 0.00 0.00 73 1030.3
20171122060527 19 304 3.0 5.0 0.00 0.00 0.00 72 1030.3
20171122060031 19 302 3.0 5.0 0.00 0.00 0.00 72 1030.3
20171122055514 19 302 3.0 5.0 0.00 0.00 0.00 72 1030.4
20171122055016 19 302 3.0 5.0 0.00 0.00 0.00 71 1030.3
20171122054520 19 302 3.0 5.0 0.00 0.00 0.00 71 1030.1
20171122054021 19 302 3.0 5.0 0.00 0.00 0.00 71 1030.0
20171122053523 19 304 3.0 5.0 0.00 0.00 0.00 72 1030.1
20171122053024 19 306 4.0 7.0 0.00 0.00 0.00 71 1030.0
20171122052529 19 285 4.0 8.0 0.00 0.00 0.00 71 1030.2
20171122052032 19 289 6.0 8.0 0.00 0.00 0.00 71 1030.1
20171122051514 19 291 5.0 7.0 0.00 0.00 0.00 70 1030.0
20171122051017 20 297 4.0 7.0 0.00 0.00 0.00 70 1029.9
20171122050519 20 297 3.0 5.0 0.00 0.00 0.00 70 1029.9
20171122050020 20 297 4.0 6.0 0.00 0.00 0.00 69 1029.9
20171122045517 20 310 4.0 6.0 0.00 0.00 0.00 68 1029.8
20171122045022 20 314 3.0 6.0 0.00 0.00 0.00 68 1029.7
20171122044525 20 314 3.0 6.0 0.00 0.00 0.00 68 1029.8
20171122044026 20 313 4.0 6.0 0.00 0.00 0.00 68 1029.7
20171122043530 20 320 4.0 8.0 0.00 0.00 0.00 67 1029.9
20171122043015 21 300 5.0 9.0 0.00 0.00 0.00 67 1029.8
20171122042031 21 329 5.0 8.0 0.00 0.00 0.00 66 1029.6
20171122041513 21 324 5.0 9.0 0.00 0.00 0.00 66 1029.6
20171122041018 21 308 4.0 10.0 0.00 0.00 0.00 65 1029.5
20171122040523 22 315 6.0 11.0 0.00 0.00 0.00 65 1029.3
20171122040024 22 343 7.0 11.0 0.00 0.00 0.00 65 1029.3
20171122035525 22 327 8.0 11.0 0.00 0.00 0.00 65 1029.5
20171122035025 22 348 8.0 11.0 0.00 0.00 0.00 65 1029.4
20171122034513 22 342 8.0 11.0 0.00 0.00 0.00 65 1029.7
20171122034015 22 338 7.0 12.0 0.00 0.00 0.00 65 1029.7
20171122033523 22 329 8.0 12.0 0.00 0.00 0.00 65 1029.7
20171122033027 22 335 5.0 10.0 0.00 0.00 0.00 65 1029.7
20171122032531 22 337 6.0 11.0 0.00 0.00 0.00 65 1029.7
20171122032013 22 327 6.0 12.0 0.00 0.00 0.00 64 1029.5
20171122031519 22 345 7.0 12.0 0.00 0.00 0.00 64 1029.4
20171122031022 23 340 8.0 12.0 0.00 0.00 0.00 63 1029.1
20171122030530 23 330 7.0 13.0 0.00 0.00 0.00 63 1029.0
20171122030018 23 326 9.0 13.0 0.00 0.00 0.00 63 1029.1
20171122025525 23 323 9.0 13.0 0.00 0.00 0.00 63 1029.3
20171122025030 23 328 7.0 11.0 0.00 0.00 0.00 63 1029.4
20171122024518 23 340 8.0 14.0 0.00 0.00 0.00 63 1029.7
20171122024021 23 325 10.0 14.0 0.00 0.00 0.00 63 1030.0
20171122023525 23 331 8.0 13.0 0.00 0.00 0.00 62 1030.0
20171122023031 24 333 6.0 12.0 0.00 0.00 0.00 62 1030.1
20171122022518 24 343 8.0 10.0 0.00 0.00 0.00 61 1030.0
20171122022022 24 336 7.0 13.0 0.00 0.00 0.00 61 1029.9
20171122021527 24 327 9.0 15.0 0.00 0.00 0.00 61 1029.9
20171122021015 24 339 10.0 14.0 0.00 0.00 0.00 61 1029.8
20171122020518 24 340 10.0 14.0 0.00 0.00 0.00 61 1029.6
20171122020023 24 326 8.0 13.0 0.00 0.00 0.00 61 1029.6
20171122015525 24 340 8.0 13.0 0.00 0.00 0.00 61 1029.2
20171122015029 24 331 8.0 13.0 0.00 0.00 0.00 61 1029.4
20171122014515 24 333 5.0 12.0 0.00 0.00 0.00 61 1029.5
20171122014020 24 348 7.0 12.0 0.00 0.00 0.00 61 1029.3
20171122013526 24 330 5.0 13.0 0.00 0.00 0.00 61 1029.1
20171122013030 25 336 10.0 15.0 0.00 0.00 0.00 60 1029.1
20171122012514 25 339 9.0 15.0 0.00 0.00 0.00 60 1029.1
20171122012019 25 329 6.0 16.0 0.00 0.00 0.00 61 1029.0
20171122011522 25 321 10.0 16.0 0.00 0.00 0.00 61 1029.1
20171122011027 25 341 7.0 14.0 0.00 0.00 0.00 61 1028.9
20171122010514 25 331 4.0 12.0 0.00 0.00 0.00 61 1029.0
20171122010021 25 327 8.0 12.0 0.00 0.00 0.00 60 1028.9
20171122005528 25 331 8.0 15.0 0.00 0.00 0.00 60 1028.8
20171122005030 26 331 10.0 16.0 0.00 0.00 0.00 59 1028.8
20171122004515 26 325 12.0 18.0 0.00 0.00 0.00 58 1028.7
20171122004019 26 329 12.0 18.0 0.00 0.00 0.00 58 1028.6
20171122003523 26 326 11.0 20.0 0.00 0.00 0.00 58 1028.4
20171122003029 26 338 14.0 20.0 0.00 0.00 0.00 58 1028.3
20171122002513 26 332 12.0 20.0 0.00 0.00 0.00 58 1028.5
20171122002016 26 338 12.0 19.0 0.00 0.00 0.00 57 1028.4
20171122001519 26 306 12.0 18.0 0.00 0.00 0.00 58 1028.3
20171122001023 26 321 13.0 18.0 0.00 0.00 0.00 58 1028.2
20171122000524 26 346 11.0 17.0 0.00 0.00 0.00 58 1028.1
20171122000028 27 5 10.0 16.0 0.00 0.00 0.00 58 1027.9
20171121235531 27 337 7.0 16.0 0.00 0.00 0.00 58 1028.0
20171121235014 27 343 9.0 17.0 0.00 0.00 0.00 57 1027.8
20171121234517 27 360 7.0 17.0 0.00 0.00 0.00 57 1027.9
20171121234021 27 341 10.0 15.0 0.00 0.00 0.00 57 1027.8
20171121233523 27 331 9.0 19.0 0.00 0.00 0.00 57 1027.7
20171121233028 28 325 12.0 19.0 0.00 0.00 0.00 56 1027.7
20171121232531 28 340 12.0 17.0 0.00 0.00 0.00 56 1027.5
20171121232015 28 333 12.0 16.0 0.00 0.00 0.00 55 1027.6
20171121231518 28 317 10.0 19.0 0.00 0.00 0.00 55 1027.5
20171121231021 28 344 13.0 21.0 0.00 0.00 0.00 55 1027.5
20171121230524 28 330 13.0 22.0 0.00 0.00 0.00 54 1027.5
20171121230027 29 313 17.0 22.0 0.00 0.00 0.00 54 1027.4
20171121225514 29 319 14.0 26.0 0.00 0.00 0.00 54 1027.4
20171121225019 29 329 15.0 26.0 0.00 0.00 0.00 53 1027.3
20171121224522 29 330 15.0 22.0 0.00 0.00 0.00 54 1027.2
20171121224025 29 341 12.0 22.0 0.00 0.00 0.00 53 1027.4
20171121223530 29 317 12.0 18.0 0.00 0.00 0.00 54 1027.5
20171121223015 29 341 12.0 20.0 0.00 0.00 0.00 54 1027.3
20171121222516 29 317 12.0 21.0 0.00 0.00 0.00 53 1027.3
20171121222021 30 336 15.0 21.0 0.00 0.00 0.00 53 1027.1
20171121221524 30 319 12.0 24.0 0.00 0.00 0.00 54 1026.9
20171121221027 30 332 16.0 28.0 0.00 0.00 0.00 52 1026.9
20171121220531 30 349 19.0 28.0 0.00 0.00 0.00 52 1026.9
20171121220014 30 336 18.0 23.0 0.00 0.00 0.00 53 1026.9
20171121215520 30 355 16.0 23.0 0.00 0.00 0.00 52 1026.9
20171121215022 31 335 17.0 24.0 0.00 0.00 0.00 52 1026.9
20171121214524 31 325 17.0 24.0 0.00 0.00 0.00 52 1026.8
20171121214027 31 360 15.0 22.0 0.00 0.00 0.00 52 1026.6
20171121213531 31 350 14.0 27.0 0.00 0.00 0.00 52 1026.6
20171121213030 31 336 16.0 27.0 0.00 0.00 0.00 52 1026.5
20171121212514 31 336 15.0 25.0 0.00 0.00 0.00 52 1026.5
20171121212017 31 325 18.0 27.0 0.00 0.00 0.00 52 1026.4
20171121211519 31 331 19.0 27.0 0.00 0.00 0.00 52 1026.4
20171121211023 31 337 18.0 26.0 0.00 0.00 0.00 52 1026.4
20171121210525 31 316 16.0 27.0 0.00 0.00 0.00 51 1026.4
20171121210028 31 355 20.0 27.0 0.00 0.00 0.00 52 1026.3
20171121205531 31 334 12.0 24.0 0.00 0.00 0.00 51 1026.3
20171121205015 31 327 14.0 25.0 0.00 0.00 0.00 53 1026.2
20171121204519 31 355 17.0 25.0 0.00 0.00 0.00 53 1025.9
20171121204023 31 318 16.0 26.0 0.00 0.00 0.00 53 1025.8
20171121203524 31 328 20.0 27.0 0.00 0.00 0.00 52 1025.8
20171121203027 31 341 17.0 32.0 0.00 0.00 0.00 53 1025.7
20171121202530 31 335 19.0 32.0 0.00 0.00 0.00 53 1025.7
20171121202014 31 346 16.0 29.0 0.00 0.00 0.00 54 1025.7
20171121201517 31 325 17.0 29.0 0.00 0.00 0.00 53 1025.6
20171121201021 31 342 15.0 24.0 0.00 0.00 0.00 54 1025.7